Simultaneous Nadir Overpasses (SNOs) Predictions

Prediction of SNOs between NOAA-20 and PACE Satellite Orbit:

Table of predicted SNOs for the next 14.0 days since TLE Epoch: 10/5/2024
Index Date (NOAA-20) Time (NOAA-20) Lat,Lon (NOAA-20) SZA (NOAA-20 ) Date (PACE) Time (PACE) Lat,Lon (PACE) SZA (PACE ) Distance(km) Time Diff (sec)
1 10/05/2024 16:49:54 -79.94, 69.23 93.16 10/05/2024 16:51:07 -79.95, 69.10 93.17 2.62 73
2 10/05/2024 17:40:35 79.81,-122.17 86.62 10/05/2024 17:40:12 79.80,-122.11 86.62 1.19 23
3 10/07/2024 21:16:19 -79.84, 3.61 92.53 10/07/2024 21:16:16 -79.83, 3.69 92.54 1.78 3
4 10/10/2024 00:52:03 79.85, 129.53 88.30 10/10/2024 00:52:18 79.85, 129.54 88.29 0.26 15
5 10/12/2024 04:27:46 -79.88,-104.65 90.86 10/12/2024 04:28:18 -79.88,-104.73 90.86 1.75 32
6 10/12/2024 05:18:25 79.68, 64.50 88.81 10/12/2024 05:17:21 79.68, 64.53 88.83 0.52 64
7 10/14/2024 08:03:30 79.92, 21.02 90.00 10/14/2024 08:04:16 79.92, 20.98 89.99 0.81 46
8 10/14/2024 08:54:08 -79.72,-169.80 90.34 10/14/2024 08:53:19 -79.72,-169.78 90.32 0.42 49
9 10/16/2024 11:39:13 -79.97, 146.58 89.14 10/16/2024 11:40:12 -79.97, 146.64 89.17 1.23 59
10 10/16/2024 12:29:52 79.78, -44.24 90.54 10/16/2024 12:29:15 79.77, -44.12 90.54 2.51 37
11 10/18/2024 15:14:54 79.95, -87.13 91.60 10/18/2024 15:16:04 79.95, -87.20 91.58 1.54 70



Historial Predications of SNOs between NOAA-20 and PACE
